Weather History for Hurghada, Egypt

Change the Weather History Date:

Sunday, January 27, 2013

  Actual Average Record
Temperature  
Mean Temperature 72 °F -  
Max Temperature 77 °F 70 °F 80 °F (2014)
Min Temperature 66 °F 53 °F 51 °F (2005)
Cooling Degree Days 8    
Growing Degree Days 22 (Base 50)    
Moisture  
Dew Point 50 °F    
Average Humidity 52    
Maximum Humidity 94    
Minimum Humidity 22    
Precipitation  
Precipitation 0.00 in - - ()
Sea Level Pressure  
Sea Level Pressure 29.89 in    
Wind  
Wind Speed 12 mph ()    
Max Wind Speed 23 mph    
Max Gust Speed -    
Visibility 5.0 miles    
Events      
Averages and records for this station are not official NWS values.
T = Trace of Precipitation, MM = Missing Value Source: Averaged Metar Reports

Daily Weather History Graph

Daily Weather History Graph

Search for Another Location

Airport:

Trip Planner

Search our weather history database for the weather conditions in past years. The results will help you decide how hot, cold, wet, or windy it might be!

Date:

Astronomy

Jan. 27, 2013 Rise Set
Actual Time 6:32 AM EET 5:22 PM EET
Civil Twilight 6:08 AM EET 5:47 PM EET
Nautical Twilight 5:40 AM EET 6:15 PM EET
Astronomical Twilight 5:12 AM EET 6:42 PM EET
Moon 5:48 PM EET (1/27) 6:19 AM EET (1/27)
Length of Visible Light 11h 38m
Length of Day
10h 49m
Full, 100% of the Moon is Illuminated
Jan 27
Full
Feb 3
Last Quarter
Feb 10
New
Feb 17
First Quarter
Feb 25
Full

Hourly Weather History & Observations

Time (EET) Temp. Dew Point Humidity Pressure Visibility Wind Dir Wind Speed Gust Speed Precip Events Conditions
12:00 AM 71.6 °F 69.8 °F 94% 29.86 in 6.2 mi South 3.5 mph - N/A   Mostly Cloudy
1:00 AM 69.8 °F 68.0 °F 94% 29.86 in 6.2 mi NW 5.8 mph - N/A   Mostly Cloudy
2:00 AM 70 °F 68 °F 92% 29.87 in 6 mi NW 5.8 mph - -   Scattered Clouds
2:00 AM 69.8 °F 68.0 °F 94% 29.86 in 6.2 mi NW 5.8 mph - N/A   Mostly Cloudy
3:00 AM 69.8 °F 68.0 °F 94% 29.83 in 6.2 mi WNW 3.5 mph - N/A   Mostly Cloudy
4:00 AM 69.8 °F 68.0 °F 94% 29.83 in 6.2 mi WNW 13.8 mph - N/A   Mostly Cloudy
5:00 AM 69.8 °F 68.0 °F 94% 29.83 in 6.2 mi WNW 16.1 mph - N/A   Mostly Cloudy
6:00 AM 68.0 °F 59.0 °F 73% 29.86 in 6.2 mi NW 19.6 mph - N/A   Mostly Cloudy
7:00 AM 68.0 °F 55.4 °F 64% 29.89 in 6.2 mi NNW 20.7 mph - N/A   Scattered Clouds
8:00 AM 69 °F 51 °F 43% 29.92 in 6 mi NW 18.4 mph - -   Scattered Clouds
8:00 AM 69.8 °F 51.8 °F 53% 29.92 in 6.2 mi NW 18.4 mph - N/A   Mostly Cloudy
9:00 AM 69.8 °F 50.0 °F 49% 29.92 in 5.0 mi WNW 19.6 mph - N/A   Mostly Cloudy
10:00 AM 73.4 °F 37.4 °F 27% 29.92 in 5.0 mi NNW 21.9 mph - N/A   Mostly Cloudy
11:00 AM 71.6 °F 41.0 °F 33% 29.92 in 5.0 mi NW 23.0 mph - N/A   Mostly Cloudy
12:00 PM 75.2 °F 42.8 °F 31% 29.89 in 5.0 mi NW 16.1 mph - N/A   Mostly Cloudy
1:00 PM 75.2 °F 42.8 °F 31% 29.89 in 3.7 mi North 21.9 mph - N/A   Mostly Cloudy
2:00 PM 76 °F 44 °F 22% 29.89 in 4 mi North 20.7 mph - -   Blowing Sand
2:00 PM 77.0 °F 44.6 °F 32% 29.89 in 3.7 mi North 20.7 mph - N/A   Mostly Cloudy
3:00 PM 73.4 °F 44.6 °F 36% 29.89 in 3.7 mi North 23.0 mph - N/A   Mostly Cloudy
4:00 PM 71.6 °F 44.6 °F 38% 29.89 in 3.7 mi North 18.4 mph - N/A   Mostly Cloudy
5:00 PM 71.6 °F 42.8 °F 35% 29.89 in 3.7 mi North 19.6 mph - N/A   Mostly Cloudy
6:00 PM 69.8 °F 44.6 °F 40% 29.89 in 3.7 mi North 11.5 mph - N/A   Mostly Cloudy
7:00 PM 69.8 °F 44.6 °F 40% 29.92 in 3.7 mi NNW 15.0 mph - N/A   Mostly Cloudy
8:00 PM 68 °F 39 °F 23% 29.94 in 4 mi NNW 16.1 mph - -   Blowing Sand
8:00 PM 68.0 °F 39.2 °F 35% 29.92 in 3.7 mi NNW 16.1 mph - N/A   Mostly Cloudy
9:00 PM 68.0 °F 37.4 °F 33% 29.95 in 5.0 mi North 11.5 mph - N/A   Unknown
10:00 PM 68.0 °F 37.4 °F 33% 29.92 in 5.0 mi NNW 13.8 mph - N/A   Unknown
11:00 PM 66.2 °F 35.6 °F 32% 29.92 in - NNW 6.9 mph - N/A   Clear